When you browse on this site, cookies collect data to enhance your experience and personalize the content and advertising you see.
Visit our Privacy Policy to learn more. By continuing to use the site, you agree to this use of cookies and data.
  • In France
  • List of Countries
  • For 7 days
  • Water Temperature
  • Weather Map
  • Weather Widgets
  • user-avatar
    Login

    Hourly Weather Djibouti

    Today, 20 August, Tuesday

    Time Temperature Precipitation Wind Pressure Humidity
    00:00 +38°C° 0 mm 2 mps 753 mmHg 51%
    01:00 +38°C° 0 mm 2 mps 752 mmHg 53%
    02:00 +37°C° 0 mm 2 mps 752 mmHg 55%
    03:00 +37°C° 0 mm 2 mps 752 mmHg 55%
    04:00 +35°C° 0.2 mm 1 mps 752 mmHg 55%
    05:00 +35°C° 0.2 mm 1 mps 753 mmHg 56%
    06:00 +35°C° 0.2 mm 1 mps 753 mmHg 56%
    07:00 +37°C° 0.2 mm 3 mps 754 mmHg 50%
    08:00 +38°C° 0.2 mm 4 mps 754 mmHg 44%
    09:00 +39°C° 0.2 mm 6 mps 755 mmHg 38%
    10:00 +41°C° 0 mm 5 mps 754 mmHg 36%
    11:00 +42°C° 0 mm 4 mps 753 mmHg 33%
    12:00 +43°C° 0 mm 4 mps 753 mmHg 31%
    13:00 +44°C° 0 mm 4 mps 752 mmHg 29%
    14:00 +46°C° 0 mm 5 mps 751 mmHg 27%
    15:00 +46°C° 0 mm 5 mps 751 mmHg 25%
    16:00 +43°C° 0 mm 5 mps 751 mmHg 31%
    17:00 +41°C° 0 mm 5 mps 751 mmHg 38%
    18:00 +39°C° 0 mm 5 mps 751 mmHg 45%
    19:00 +38°C° 0 mm 4 mps 751 mmHg 44%
    20:00 +38°C° 0 mm 4 mps 751 mmHg 42%
    21:00 +39°C° 0 mm 3 mps 752 mmHg 41%
    22:00 +39°C° 0 mm 3 mps 752 mmHg 41%
    23:00 +39°C° 0 mm 3 mps 752 mmHg 41%

    Tomorrow, 21 August, Wednesday

    Time Temperature Precipitation Wind Pressure Humidity
    00:00 +38°C° 0 mm 3 mps 752 mmHg 41%
    01:00 +38°C° 0 mm 3 mps 752 mmHg 42%
    02:00 +38°C° 0 mm 3 mps 751 mmHg 43%
    03:00 +38°C° 0 mm 2 mps 751 mmHg 44%
    04:00 +37°C° 0 mm 2 mps 751 mmHg 44%
    05:00 +37°C° 0 mm 3 mps 752 mmHg 45%
    06:00 +37°C° 0 mm 3 mps 752 mmHg 45%
    07:00 +38°C° 0 mm 3 mps 753 mmHg 42%
    08:00 +39°C° 0 mm 3 mps 753 mmHg 39%
    09:00 +40°C° 0 mm 3 mps 753 mmHg 36%
    10:00 +42°C° 0 mm 3 mps 753 mmHg 32%
    11:00 +42°C° 0 mm 3 mps 753 mmHg 29%
    12:00 +43°C° 0 mm 3 mps 753 mmHg 26%
    13:00 +43°C° 0 mm 4 mps 752 mmHg 27%
    14:00 +43°C° 0 mm 4 mps 751 mmHg 29%
    15:00 +43°C° 0 mm 5 mps 750 mmHg 30%
    16:00 +42°C° 0 mm 4 mps 750 mmHg 35%
    17:00 +41°C° 0 mm 4 mps 750 mmHg 39%
    18:00 +38°C° 0 mm 3 mps 750 mmHg 44%
    19:00 +38°C° 0 mm 3 mps 750 mmHg 45%
    20:00 +38°C° 0 mm 3 mps 751 mmHg 46%
    21:00 +38°C° 0 mm 2 mps 751 mmHg 46%
    22:00 +37°C° 0 mm 3 mps 751 mmHg 46%
    23:00 +37°C° 0 mm 3 mps 751 mmHg 46%

    Day after tomorrow, 22 August, Thursday

    Time Temperature Precipitation Wind Pressure Humidity
    00:00 +37°C° 0 mm 4 mps 751 mmHg 47%
    01:00 +37°C° 0 mm 4 mps 751 mmHg 46%
    02:00 +37°C° 0 mm 4 mps 751 mmHg 45%
    03:00 +37°C° 0 mm 4 mps 751 mmHg 44%
    04:00 +37°C° 0 mm 3 mps 751 mmHg 45%
    05:00 +36°C° 0 mm 3 mps 752 mmHg 47%
    06:00 +36°C° 0 mm 3 mps 752 mmHg 48%
    07:00 +37°C° 0 mm 3 mps 752 mmHg 45%
    08:00 +37°C° 0 mm 3 mps 753 mmHg 43%
    09:00 +38°C° 0 mm 2 mps 753 mmHg 40%
    10:00 +39°C° 0 mm 3 mps 753 mmHg 38%
    11:00 +40°C° 0 mm 3 mps 752 mmHg 36%
    12:00 +42°C° 0 mm 3 mps 752 mmHg 34%
    13:00 +42°C° 0 mm 3 mps 751 mmHg 33%
    14:00 +43°C° 0 mm 4 mps 751 mmHg 32%
    15:00 +43°C° 0 mm 4 mps 750 mmHg 30%
    16:00 +41°C° 0 mm 4 mps 750 mmHg 37%
    17:00 +40°C° 0 mm 4 mps 750 mmHg 44%
    18:00 +37°C° 0 mm 4 mps 750 mmHg 51%
    19:00 +37°C° 0 mm 3 mps 750 mmHg 49%
    20:00 +37°C° 0 mm 2 mps 751 mmHg 48%
    21:00 +37°C° 0 mm 2 mps 751 mmHg 46%
    22:00 +38°C° 0 mm 2 mps 751 mmHg 45%
    23:00 +38°C° 0 mm 2 mps 751 mmHg 45%

    23 August, Friday

    Time Temperature Precipitation Wind Pressure Humidity
    00:00 +37°C° 0 mm 1 mps 751 mmHg 44%
    01:00 +38°C° 0 mm 2 mps 751 mmHg 44%
    02:00 +37°C° 0 mm 2 mps 751 mmHg 44%
    03:00 +37°C° 0 mm 2 mps 750 mmHg 44%
    04:00 +37°C° 0 mm 2 mps 751 mmHg 46%
    05:00 +36°C° 0 mm 3 mps 751 mmHg 47%
    06:00 +36°C° 0 mm 3 mps 752 mmHg 49%
    07:00 +37°C° 0 mm 3 mps 752 mmHg 43%
    08:00 +39°C° 0 mm 2 mps 753 mmHg 37%
    09:00 +40°C° 0 mm 2 mps 753 mmHg 31%
    10:00 +40°C° 0 mm 3 mps 753 mmHg 33%
    11:00 +41°C° 0 mm 4 mps 752 mmHg 34%
    12:00 +41°C° 0 mm 4 mps 752 mmHg 36%
    13:00 +41°C° 0 mm 4 mps 751 mmHg 36%
    14:00 +42°C° 0 mm 5 mps 751 mmHg 35%
    15:00 +42°C° 0 mm 5 mps 750 mmHg 35%
    16:00 +41°C° 0 mm 5 mps 750 mmHg 38%
    17:00 +39°C° 0 mm 5 mps 750 mmHg 42%
    18:00 +37°C° 0 mm 4 mps 750 mmHg 46%
    19:00 +37°C° 0 mm 4 mps 751 mmHg 44%
    20:00 +37°C° 0 mm 3 mps 751 mmHg 43%
    21:00 +38°C° 0 mm 2 mps 752 mmHg 41%
    22:00 +38°C° 0 mm 2 mps 752 mmHg 40%
    23:00 +38°C° 0 mm 3 mps 752 mmHg 40%

    24 August, Saturday

    Time Temperature Precipitation Wind Pressure Humidity
    00:00 +38°C° 0 mm 3 mps 752 mmHg 39%
    01:00 +37°C° 0 mm 3 mps 751 mmHg 40%
    02:00 +37°C° 0 mm 2 mps 751 mmHg 40%
    03:00 +37°C° 0 mm 2 mps 751 mmHg 41%
    04:00 +37°C° 0 mm 2 mps 751 mmHg 43%
    05:00 +35°C° 0 mm 1 mps 752 mmHg 44%
    06:00 +35°C° 0 mm 1 mps 752 mmHg 46%
    07:00 +36°C° 0 mm 1 mps 753 mmHg 41%
    08:00 +39°C° 0 mm 1 mps 753 mmHg 36%
    09:00 +40°C° 0 mm 2 mps 754 mmHg 32%
    10:00 +41°C° 0 mm 2 mps 753 mmHg 30%
    11:00 +42°C° 0 mm 3 mps 753 mmHg 28%
    12:00 +43°C° 0 mm 3 mps 753 mmHg 26%
    13:00 +44°C° 0 mm 4 mps 752 mmHg 26%
    14:00 +44°C° 0 mm 4 mps 751 mmHg 26%
    15:00 +44°C° 0 mm 4 mps 750 mmHg 26%
    16:00 +42°C° 0 mm 4 mps 750 mmHg 31%
    17:00 +41°C° 0 mm 4 mps 750 mmHg 36%
    18:00 +38°C° 0 mm 3 mps 750 mmHg 41%
    19:00 +38°C° 0 mm 3 mps 751 mmHg 41%
    20:00 +38°C° 0 mm 3 mps 751 mmHg 42%
    21:00 +37°C° 0 mm 3 mps 752 mmHg 42%
    22:00 +37°C° 0 mm 3 mps 752 mmHg 41%
    23:00 +38°C° 0 mm 3 mps 752 mmHg 40%

    25 August, Sunday

    Time Temperature Precipitation Wind Pressure Humidity
    00:00 +38°C° 0 mm 3 mps 752 mmHg 40%
    01:00 +38°C° 0 mm 2 mps 752 mmHg 40%
    02:00 +37°C° 0 mm 2 mps 752 mmHg 40%
    03:00 +36°C° 0 mm 1 mps 751 mmHg 41%
    04:00 +36°C° 0 mm 1 mps 752 mmHg 42%
    05:00 +35°C° 0 mm 1 mps 752 mmHg 44%
    06:00 +35°C° 0 mm 1 mps 753 mmHg 45%
    07:00 +36°C° 0 mm 1 mps 753 mmHg 41%
    08:00 +39°C° 0 mm 2 mps 754 mmHg 36%
    09:00 +40°C° 0 mm 3 mps 754 mmHg 31%
    10:00 +42°C° 0 mm 3 mps 754 mmHg 29%
    11:00 +43°C° 0 mm 3 mps 753 mmHg 27%
    12:00 +44°C° 0 mm 3 mps 752 mmHg 26%
    13:00 +45°C° 0 mm 3 mps 752 mmHg 24%
    14:00 +46°C° 0 mm 3 mps 751 mmHg 22%
    15:00 +46°C° 0 mm 2 mps 750 mmHg 21%
    16:00 +45°C° 0 mm 4 mps 750 mmHg 26%
    17:00 +43°C° 0 mm 5 mps 750 mmHg 31%
    18:00 +41°C° 0 mm 6 mps 750 mmHg 36%
    19:00 +41°C° 0 mm 6 mps 750 mmHg 35%
    20:00 +41°C° 0 mm 6 mps 751 mmHg 35%
    21:00 +41°C° 0 mm 5 mps 752 mmHg 35%
    22:00 +41°C° 0 mm 4 mps 752 mmHg 35%
    23:00 +40°C° 0 mm 3 mps 752 mmHg 36%
    Show more